| time (UTC) | temp F | wind direction | speed MPH | gust MPH | rain 1hr in | rain 24hr in | rain mn in | humidity % | barometer mb |
| 20260509101149 | 73 | 304 | 3.0 | 6.0 | 0.00 | 0.00 | 0.00 | 67 | 1016.5 |
| 20260509100654 | 73 | 342 | 6.0 | 7.0 | 0.00 | 0.00 | 0.00 | 66 | 1016.6 |
| 20260509100148 | 73 | 333 | 3.0 | 8.0 | 0.00 | 0.00 | 0.00 | 67 | 1016.6 |
| 20260509095648 | 72 | 319 | 3.0 | 5.0 | 0.00 | 0.00 | 0.00 | 68 | 1016.6 |
| 20260509095149 | 72 | 291 | 4.0 | 6.0 | 0.00 | 0.00 | 0.00 | 68 | 1016.6 |
| 20260509094652 | 72 | 300 | 3.0 | 7.0 | 0.00 | 0.00 | 0.00 | 68 | 1016.6 |
| 20260509094149 | 72 | 355 | 4.0 | 5.0 | 0.00 | 0.00 | 0.00 | 69 | 1016.6 |
| 20260509093651 | 71 | 298 | 0.0 | 4.0 | 0.00 | 0.00 | 0.00 | 70 | 1016.7 |
| 20260509093149 | 71 | 43 | 0.0 | 5.0 | 0.00 | 0.00 | 0.00 | 69 | 1016.7 |
| 20260509092655 | 71 | 12 | 3.0 | 6.0 | 0.00 | 0.00 | 0.00 | 70 | 1016.7 |
| 20260509092149 | 71 | 250 | 3.0 | 5.0 | 0.00 | 0.00 | 0.00 | 71 | 1016.9 |
| 20260509091658 | 71 | 42 | 2.0 | 6.0 | 0.00 | 0.00 | 0.00 | 71 | 1016.9 |
| 20260509091155 | 71 | 107 | 1.0 | 6.0 | 0.00 | 0.00 | 0.00 | 72 | 1016.9 |
| 20260509090655 | 70 | 284 | 3.0 | 7.0 | 0.00 | 0.00 | 0.00 | 73 | 1017.0 |
| 20260509090152 | 70 | 297 | 2.0 | 7.0 | 0.00 | 0.00 | 0.00 | 73 | 1017.0 |
| 20260509085649 | 70 | 294 | 5.0 | 7.0 | 0.00 | 0.00 | 0.00 | 74 | 1016.9 |
| 20260509085149 | 70 | 56 | 1.0 | 8.0 | 0.00 | 0.00 | 0.00 | 74 | 1016.9 |
| 20260509084652 | 69 | 273 | 3.0 | 4.0 | 0.00 | 0.00 | 0.00 | 78 | 1017.0 |
| 20260509084149 | 69 | 14 | 0.0 | 5.0 | 0.00 | 0.00 | 0.00 | 78 | 1017.0 |
| 20260509083650 | 68 | 17 | 2.0 | 5.0 | 0.00 | 0.00 | 0.00 | 79 | 1017.0 |
| 20260509083149 | 68 | 291 | 4.0 | 8.0 | 0.00 | 0.00 | 0.00 | 79 | 1017.1 |
| 20260509082649 | 68 | 341 | 0.0 | 5.0 | 0.00 | 0.00 | 0.00 | 80 | 1017.1 |
| 20260509082152 | 68 | 286 | 3.0 | 7.0 | 0.00 | 0.00 | 0.00 | 80 | 1017.1 |
| 20260509081652 | 68 | 337 | 1.0 | 5.0 | 0.00 | 0.00 | 0.00 | 80 | 1017.1 |
| 20260509081152 | 67 | 327 | 5.0 | 6.0 | 0.00 | 0.00 | 0.00 | 80 | 1017.2 |
| 20260509080652 | 68 | 289 | 3.0 | 7.0 | 0.00 | 0.00 | 0.00 | 81 | 1017.1 |
| 20260509080152 | 68 | 294 | 2.0 | 7.0 | 0.00 | 0.00 | 0.00 | 81 | 1017.2 |
| 20260509075649 | 68 | 267 | 6.0 | 7.0 | 0.00 | 0.00 | 0.00 | 81 | 1017.1 |
| 20260509075158 | 68 | 327 | 3.0 | 8.0 | 0.00 | 0.00 | 0.00 | 81 | 1017.1 |
| 20260509074652 | 68 | 285 | 4.0 | 8.0 | 0.00 | 0.00 | 0.00 | 81 | 1017.1 |
| 20260509074149 | 68 | 304 | 3.0 | 8.0 | 0.00 | 0.00 | 0.00 | 81 | 1017.0 |
| 20260509073658 | 68 | 306 | 4.0 | 8.0 | 0.00 | 0.00 | 0.00 | 82 | 1017.1 |
| 20260509073152 | 68 | 316 | 6.0 | 8.0 | 0.00 | 0.00 | 0.00 | 82 | 1017.0 |
| 20260509072652 | 68 | 278 | 10.0 | 10.0 | 0.00 | 0.00 | 0.00 | 82 | 1017.0 |
| 20260509072150 | 68 | 273 | 2.0 | 10.0 | 0.00 | 0.00 | 0.00 | 81 | 1017.0 |
| 20260509071653 | 68 | 298 | 0.0 | 6.0 | 0.00 | 0.00 | 0.00 | 82 | 1017.0 |
| 20260509071149 | 68 | 318 | 4.0 | 8.0 | 0.00 | 0.00 | 0.00 | 83 | 1017.0 |
| 20260509070649 | 67 | 326 | 2.0 | 8.0 | 0.00 | 0.00 | 0.00 | 82 | 1017.0 |
| 20260509070152 | 67 | 303 | 5.0 | 9.0 | 0.00 | 0.00 | 0.00 | 82 | 1017.0 |
| 20260509065655 | 67 | 291 | 5.0 | 8.0 | 0.00 | 0.00 | 0.00 | 82 | 1017.1 |
| 20260509065152 | 67 | 249 | 3.0 | 6.0 | 0.00 | 0.00 | 0.00 | 83 | 1017.1 |
| 20260509064649 | 66 | 288 | 0.0 | 12.0 | 0.00 | 0.00 | 0.00 | 83 | 1017.1 |
| 20260509064149 | 66 | 322 | 5.0 | 7.0 | 0.00 | 0.00 | 0.00 | 84 | 1017.0 |
| 20260509063649 | 66 | 248 | 0.0 | 6.0 | 0.00 | 0.00 | 0.00 | 84 | 1016.9 |
| 20260509063149 | 66 | 278 | 1.0 | 5.0 | 0.00 | 0.00 | 0.00 | 84 | 1016.9 |
| 20260509062652 | 66 | 265 | 3.0 | 4.0 | 0.00 | 0.00 | 0.00 | 84 | 1016.9 |
| 20260509062149 | 66 | 246 | 4.0 | 5.0 | 0.00 | 0.00 | 0.00 | 84 | 1016.9 |
| 20260509061649 | 66 | 236 | 4.0 | 8.0 | 0.00 | 0.00 | 0.00 | 83 | 1016.8 |
| 20260509061155 | 66 | 277 | 0.0 | 3.0 | 0.00 | 0.00 | 0.00 | 83 | 1016.7 |
| 20260509060655 | 66 | 298 | 0.0 | 6.0 | 0.00 | 0.00 | 0.00 | 83 | 1016.6 |
| 20260509060149 | 66 | 231 | 1.0 | 7.0 | 0.00 | 0.00 | 0.00 | 83 | 1016.6 |
| 20260509055655 | 66 | 290 | 1.0 | 4.0 | 0.00 | 0.00 | 0.00 | 83 | 1016.6 |
| 20260509055152 | 66 | 249 | 0.0 | 9.0 | 0.00 | 0.00 | 0.00 | 83 | 1016.5 |
| 20260509054649 | 66 | 229 | 0.0 | 5.0 | 0.00 | 0.00 | 0.00 | 83 | 1016.5 |
| 20260509054150 | 66 | 293 | 1.0 | 7.0 | 0.00 | 0.00 | 0.00 | 83 | 1016.5 |
| 20260509053652 | 66 | 285 | 0.0 | 0.0 | 0.00 | 0.00 | 0.00 | 83 | 1016.5 |
| 20260509053149 | 66 | 19 | 0.0 | 3.0 | 0.00 | 0.00 | 0.00 | 83 | 1016.4 |
| 20260509052649 | 66 | 19 | 1.0 | 2.0 | 0.00 | 0.00 | 0.00 | 83 | 1016.4 |
| 20260509052149 | 66 | 19 | 2.0 | 3.0 | 0.00 | 0.00 | 0.00 | 83 | 1016.3 |
| 20260509051649 | 66 | 19 | 0.0 | 0.0 | 0.00 | 0.00 | 0.00 | 83 | 1016.2 |
| 20260509051158 | 66 | 19 | 0.0 | 0.0 | 0.00 | 0.00 | 0.00 | 84 | 1016.2 |
| 20260509050649 | 66 | 19 | 0.0 | 0.0 | 0.00 | 0.00 | 0.00 | 84 | 1016.1 |
| 20260509050152 | 65 | 19 | 0.0 | 0.0 | 0.00 | 0.00 | 0.00 | 84 | 1016.1 |
| 20260509045652 | 65 | 19 | 0.0 | 0.0 | 0.00 | 0.00 | 0.00 | 84 | 1016.0 |
| 20260509045149 | 65 | 124 | 0.0 | 0.0 | 0.00 | 0.00 | 0.00 | 84 | 1015.9 |
| 20260509044652 | 65 | 124 | 0.0 | 0.0 | 0.00 | 0.00 | 0.00 | 84 | 1015.9 |
| 20260509044149 | 65 | 124 | 0.0 | 0.0 | 0.00 | 0.00 | 0.00 | 84 | 1015.9 |
| 20260509043649 | 65 | 186 | 0.0 | 0.0 | 0.00 | 0.00 | 0.00 | 84 | 1015.8 |
| 20260509043152 | 65 | 185 | 0.0 | 0.0 | 0.00 | 0.00 | 0.00 | 84 | 1015.8 |
| 20260509042649 | 65 | 185 | 0.0 | 0.0 | 0.00 | 0.00 | 0.00 | 84 | 1015.8 |
| 20260509042158 | 65 | 185 | 0.0 | 0.0 | 0.00 | 0.00 | 0.00 | 84 | 1015.7 |
| 20260509041655 | 65 | 185 | 0.0 | 0.0 | 0.00 | 0.00 | 0.00 | 84 | 1015.7 |
| 20260509041155 | 65 | 185 | 0.0 | 1.0 | 0.00 | 0.00 | 0.00 | 84 | 1015.7 |
| 20260509040652 | 65 | 185 | 0.0 | 0.0 | 0.00 | 0.00 | 0.00 | 84 | 1015.7 |
| 20260509040152 | 65 | 185 | 0.0 | 1.0 | 0.00 | 0.00 | 0.00 | 84 | 1015.8 |
| 20260509035652 | 65 | 185 | 0.0 | 3.0 | 0.00 | 0.00 | 0.00 | 84 | 1015.7 |
| 20260509035149 | 65 | 157 | 2.0 | 2.0 | 0.00 | 0.00 | 0.00 | 84 | 1015.7 |
| 20260509034649 | 65 | 157 | 0.0 | 0.0 | 0.00 | 0.00 | 0.00 | 84 | 1015.6 |
| 20260509034149 | 65 | 157 | 0.0 | 0.0 | 0.00 | 0.00 | 0.00 | 84 | 1015.7 |
| 20260509033652 | 65 | 157 | 0.0 | 0.0 | 0.00 | 0.00 | 0.00 | 84 | 1015.7 |
| 20260509033152 | 65 | 157 | 0.0 | 0.0 | 0.00 | 0.00 | 0.00 | 84 | 1015.7 |
| 20260509032649 | 65 | 157 | 0.0 | 0.0 | 0.00 | 0.00 | 0.00 | 84 | 1015.6 |
| 20260509032155 | 65 | 157 | 0.0 | 2.0 | 0.00 | 0.00 | 0.00 | 83 | 1015.6 |
| 20260509031649 | 65 | 157 | 0.0 | 3.0 | 0.00 | 0.00 | 0.00 | 83 | 1015.5 |
| 20260509031152 | 65 | 157 | 0.0 | 1.0 | 0.00 | 0.00 | 0.00 | 83 | 1015.6 |
| 20260509030652 | 65 | 157 | 1.0 | 3.0 | 0.00 | 0.00 | 0.00 | 83 | 1015.5 |
| 20260509030149 | 65 | 167 | 0.0 | 3.0 | 0.00 | 0.00 | 0.00 | 83 | 1015.5 |
| 20260509025655 | 64 | 136 | 0.0 | 4.0 | 0.00 | 0.00 | 0.00 | 82 | 1015.4 |
| 20260509025149 | 64 | 190 | 3.0 | 3.0 | 0.00 | 0.00 | 0.00 | 82 | 1015.3 |
| 20260509024658 | 64 | 185 | 1.0 | 4.0 | 0.00 | 0.00 | 0.00 | 82 | 1015.3 |
| 20260509024155 | 64 | 196 | 1.0 | 3.0 | 0.00 | 0.00 | 0.00 | 81 | 1015.3 |
| 20260509023649 | 64 | 151 | 0.0 | 0.0 | 0.00 | 0.00 | 0.00 | 81 | 1015.4 |
| 20260509023152 | 63 | 151 | 0.0 | 0.0 | 0.00 | 0.00 | 0.00 | 81 | 1015.4 |
| 20260509022655 | 63 | 151 | 0.0 | 1.0 | 0.00 | 0.00 | 0.00 | 80 | 1015.4 |
| 20260509022152 | 63 | 151 | 0.0 | 3.0 | 0.00 | 0.00 | 0.00 | 79 | 1015.4 |
| 20260509021649 | 64 | 183 | 3.0 | 3.0 | 0.00 | 0.00 | 0.00 | 80 | 1015.3 |
| 20260509021152 | 64 | 117 | 3.0 | 5.0 | 0.00 | 0.00 | 0.00 | 79 | 1015.4 |
| 20260509020649 | 64 | 141 | 0.0 | 5.0 | 0.00 | 0.00 | 0.00 | 79 | 1015.3 |
| 20260509020147 | 64 | 135 | 3.0 | 6.0 | 0.00 | 0.00 | 0.00 | 78 | 1015.3 |
| 20260509015653 | 64 | 171 | 2.0 | 2.0 | 0.00 | 0.00 | 0.00 | 78 | 1015.3 |
| 20260509015147 | 64 | 154 | 1.0 | 2.0 | 0.00 | 0.00 | 0.00 | 78 | 1015.2 |
| 20260509014650 | 64 | 154 | 0.0 | 3.0 | 0.00 | 0.00 | 0.00 | 77 | 1015.2 |
| 20260509014153 | 64 | 159 | 0.0 | 0.0 | 0.00 | 0.00 | 0.00 | 77 | 1015.2 |
| 20260509013653 | 64 | 159 | 0.0 | 0.0 | 0.00 | 0.00 | 0.00 | 77 | 1015.1 |
| 20260509013147 | 64 | 159 | 0.0 | 0.0 | 0.00 | 0.00 | 0.00 | 77 | 1015.1 |
| 20260509012653 | 64 | 159 | 0.0 | 0.0 | 0.00 | 0.00 | 0.00 | 77 | 1015.0 |
| 20260509012147 | 65 | 159 | 0.0 | 0.0 | 0.00 | 0.00 | 0.00 | 77 | 1015.0 |
| 20260509011650 | 65 | 159 | 0.0 | 0.0 | 0.00 | 0.00 | 0.00 | 77 | 1015.0 |
| 20260509011150 | 65 | 159 | 0.0 | 0.0 | 0.00 | 0.00 | 0.00 | 77 | 1014.9 |
| 20260509010650 | 65 | 159 | 0.0 | 0.0 | 0.00 | 0.00 | 0.00 | 77 | 1014.8 |
| 20260509010147 | 65 | 159 | 0.0 | 0.0 | 0.00 | 0.00 | 0.00 | 77 | 1014.8 |
| 20260509005650 | 65 | 159 | 0.0 | 0.0 | 0.00 | 0.00 | 0.00 | 77 | 1014.8 |
| 20260509005153 | 65 | 159 | 0.0 | 0.0 | 0.00 | 0.00 | 0.00 | 76 | 1014.7 |
| 20260509004647 | 65 | 159 | 0.0 | 0.0 | 0.00 | 0.00 | 0.00 | 76 | 1014.7 |
| 20260509004147 | 65 | 159 | 0.0 | 0.0 | 0.00 | 0.00 | 0.00 | 76 | 1014.7 |
| 20260509003651 | 65 | 159 | 0.0 | 0.0 | 0.00 | 0.00 | 0.00 | 76 | 1014.8 |
| 20260509003147 | 65 | 159 | 0.0 | 0.0 | 0.00 | 0.00 | 0.00 | 76 | 1014.9 |
| 20260509002647 | 65 | 159 | 0.0 | 0.0 | 0.00 | 0.00 | 0.00 | 76 | 1014.9 |
| 20260509002147 | 66 | 159 | 0.0 | 0.0 | 0.00 | 0.00 | 0.00 | 76 | 1015.0 |
| 20260509001647 | 66 | 159 | 0.0 | 0.0 | 0.00 | 0.00 | 0.00 | 75 | 1014.9 |
| 20260509001150 | 65 | 159 | 0.0 | 0.0 | 0.00 | 0.00 | 0.00 | 75 | 1014.9 |
| 20260509000653 | 66 | 159 | 0.0 | 0.0 | 0.00 | 0.00 | 0.00 | 75 | 1015.0 |
| 20260509000150 | 66 | 159 | 0.0 | 0.0 | 0.00 | 0.00 | 0.00 | 75 | 1015.0 |
| 20260508235653 | 66 | 159 | 0.0 | 0.0 | 0.00 | 0.00 | 0.00 | 74 | 1015.0 |
| 20260508235147 | 66 | 146 | 0.0 | 0.0 | 0.00 | 0.00 | 0.00 | 74 | 1014.9 |
| 20260508234650 | 66 | 146 | 0.0 | 0.0 | 0.00 | 0.00 | 0.00 | 74 | 1014.8 |
| 20260508234150 | 66 | 200 | 0.0 | 0.0 | 0.00 | 0.00 | 0.00 | 74 | 1014.9 |
| 20260508233650 | 67 | 152 | 0.0 | 0.0 | 0.00 | 0.00 | 0.00 | 73 | 1014.8 |
| 20260508233147 | 67 | 152 | 0.0 | 0.0 | 0.00 | 0.00 | 0.00 | 73 | 1014.9 |
| 20260508232647 | 67 | 151 | 0.0 | 0.0 | 0.00 | 0.00 | 0.00 | 73 | 1015.0 |
| 20260508232153 | 66 | 152 | 0.0 | 0.0 | 0.00 | 0.00 | 0.00 | 73 | 1015.1 |
| 20260508231654 | 66 | 152 | 0.0 | 0.0 | 0.00 | 0.00 | 0.00 | 73 | 1015.1 |
| 20260508231150 | 66 | 152 | 0.0 | 0.0 | 0.00 | 0.00 | 0.00 | 73 | 1015.2 |
| 20260508230647 | 67 | 151 | 0.0 | 0.0 | 0.00 | 0.00 | 0.00 | 73 | 1015.3 |
| 20260508230147 | 67 | 151 | 0.0 | 0.0 | 0.00 | 0.00 | 0.00 | 72 | 1015.3 |
| 20260508225650 | 67 | 152 | 0.0 | 0.0 | 0.00 | 0.00 | 0.00 | 73 | 1015.3 |
| 20260508225150 | 67 | 151 | 0.0 | 0.0 | 0.00 | 0.00 | 0.00 | 72 | 1015.4 |
| 20260508224647 | 67 | 152 | 0.0 | 0.0 | 0.00 | 0.00 | 0.00 | 73 | 1015.5 |
| 20260508224147 | 67 | 152 | 0.0 | 0.0 | 0.00 | 0.00 | 0.00 | 73 | 1015.5 |
| 20260508223647 | 67 | 151 | 0.0 | 0.0 | 0.00 | 0.00 | 0.00 | 73 | 1015.4 |
| 20260508223153 | 67 | 152 | 0.0 | 0.0 | 0.00 | 0.00 | 0.00 | 73 | 1015.2 |
| 20260508222650 | 66 | 152 | 0.0 | 0.0 | 0.00 | 0.00 | 0.00 | 73 | 1015.2 |
| 20260508222151 | 66 | 151 | 0.0 | 0.0 | 0.00 | 0.00 | 0.00 | 73 | 1015.2 |
| 20260508221650 | 66 | 151 | 0.0 | 0.0 | 0.00 | 0.00 | 0.00 | 73 | 1015.2 |
| 20260508221150 | 66 | 151 | 0.0 | 3.0 | 0.00 | 0.00 | 0.00 | 73 | 1015.2 |
| 20260508220650 | 66 | 134 | 1.0 | 3.0 | 0.00 | 0.00 | 0.00 | 73 | 1015.2 |
| 20260508220156 | 66 | 160 | 2.0 | 3.0 | 0.00 | 0.00 | 0.00 | 72 | 1015.1 |
| 20260508215650 | 66 | 145 | 0.0 | 4.0 | 0.00 | 0.00 | 0.00 | 72 | 1015.0 |
| 20260508215150 | 67 | 157 | 0.0 | 3.0 | 0.00 | 0.00 | 0.00 | 71 | 1015.0 |
| 20260508214650 | 67 | 147 | 0.0 | 3.0 | 0.00 | 0.00 | 0.00 | 71 | 1015.1 |
| 20260508214147 | 67 | 161 | 0.0 | 0.0 | 0.00 | 0.00 | 0.00 | 71 | 1015.1 |
| 20260508213647 | 67 | 161 | 0.0 | 0.0 | 0.00 | 0.00 | 0.00 | 71 | 1015.1 |
| 20260508213150 | 67 | 161 | 0.0 | 1.0 | 0.00 | 0.00 | 0.00 | 70 | 1015.0 |
| 20260508212650 | 67 | 161 | 0.0 | 3.0 | 0.00 | 0.00 | 0.00 | 70 | 1015.0 |
| 20260508212147 | 67 | 161 | 2.0 | 3.0 | 0.00 | 0.00 | 0.00 | 70 | 1015.0 |
| 20260508211647 | 67 | 161 | 0.0 | 1.0 | 0.00 | 0.00 | 0.00 | 70 | 1015.0 |
| 20260508211150 | 67 | 161 | 0.0 | 3.0 | 0.00 | 0.00 | 0.00 | 70 | 1015.0 |
| 20260508210650 | 67 | 161 | 0.0 | 1.0 | 0.00 | 0.00 | 0.00 | 70 | 1015.1 |
| 20260508210147 | 67 | 161 | 0.0 | 0.0 | 0.00 | 0.00 | 0.00 | 70 | 1015.0 |
| 20260508205653 | 67 | 161 | 0.0 | 0.0 | 0.00 | 0.00 | 0.00 | 70 | 1014.9 |
| 20260508205150 | 67 | 161 | 0.0 | 1.0 | 0.00 | 0.00 | 0.00 | 71 | 1014.9 |
| 20260508204650 | 67 | 161 | 0.0 | 1.0 | 0.00 | 0.00 | 0.00 | 71 | 1014.9 |
| 20260508204147 | 67 | 161 | 0.0 | 2.0 | 0.00 | 0.00 | 0.00 | 71 | 1014.9 |
| 20260508203647 | 67 | 161 | 1.0 | 2.0 | 0.00 | 0.00 | 0.00 | 71 | 1015.0 |
| 20260508203153 | 66 | 161 | 0.0 | 4.0 | 0.00 | 0.00 | 0.00 | 71 | 1015.0 |
| 20260508202653 | 66 | 161 | 1.0 | 4.0 | 0.00 | 0.00 | 0.00 | 70 | 1015.0 |
| 20260508202153 | 66 | 156 | 0.0 | 4.0 | 0.00 | 0.00 | 0.00 | 70 | 1015.0 |
| 20260508201653 | 66 | 157 | 2.0 | 5.0 | 0.00 | 0.00 | 0.00 | 70 | 1014.9 |
| 20260508201147 | 67 | 159 | 1.0 | 5.0 | 0.00 | 0.00 | 0.00 | 70 | 1014.9 |
| 20260508200650 | 67 | 157 | 2.0 | 5.0 | 0.00 | 0.00 | 0.00 | 69 | 1014.9 |
| 20260508200150 | 67 | 168 | 3.0 | 6.0 | 0.00 | 0.00 | 0.00 | 69 | 1014.9 |
| 20260508195650 | 67 | 155 | 4.0 | 5.0 | 0.00 | 0.00 | 0.00 | 69 | 1014.9 |
| 20260508195148 | 67 | 171 | 0.0 | 4.0 | 0.00 | 0.00 | 0.00 | 69 | 1014.8 |
| 20260508194647 | 67 | 143 | 1.0 | 4.0 | 0.00 | 0.00 | 0.00 | 69 | 1014.8 |
| 20260508194153 | 67 | 167 | 0.0 | 2.0 | 0.00 | 0.00 | 0.00 | 70 | 1014.7 |
| 20260508193650 | 67 | 171 | 0.0 | 4.0 | 0.00 | 0.00 | 0.00 | 71 | 1014.8 |
| 20260508193150 | 68 | 164 | 2.0 | 2.0 | 0.00 | 0.00 | 0.00 | 75 | 1014.7 |
| 20260508192647 | 68 | 290 | 0.0 | 3.0 | 0.00 | 0.00 | 0.00 | 79 | 1014.6 |
| 20260508192153 | 68 | 290 | 0.0 | 3.0 | 0.00 | 0.00 | 0.00 | 78 | 1014.6 |
| 20260508191653 | 68 | 290 | 1.0 | 5.0 | 0.00 | 0.00 | 0.00 | 77 | 1014.5 |
| 20260508191156 | 69 | 308 | 3.0 | 4.0 | 0.00 | 0.00 | 0.00 | 75 | 1014.4 |
| 20260508190647 | 69 | 299 | 2.0 | 3.0 | 0.00 | 0.00 | 0.00 | 73 | 1014.3 |
| 20260508190147 | 69 | 300 | 2.0 | 5.0 | 0.00 | 0.00 | 0.00 | 72 | 1014.2 |
| 20260508185647 | 69 | 296 | 0.0 | 4.0 | 0.00 | 0.00 | 0.00 | 70 | 1014.1 |
| 20260508185150 | 69 | 288 | 4.0 | 5.0 | 0.00 | 0.00 | 0.00 | 69 | 1014.0 |
| 20260508184647 | 69 | 302 | 1.0 | 4.0 | 0.00 | 0.00 | 0.00 | 68 | 1014.0 |
| 20260508184147 | 69 | 263 | 4.0 | 5.0 | 0.00 | 0.00 | 0.00 | 66 | 1013.9 |
| 20260508183653 | 69 | 294 | 0.0 | 5.0 | 0.00 | 0.00 | 0.00 | 65 | 1013.8 |
| 20260508183157 | 69 | 288 | 2.0 | 4.0 | 0.00 | 0.00 | 0.00 | 64 | 1013.8 |
| 20260508182648 | 70 | 292 | 0.0 | 4.0 | 0.00 | 0.00 | 0.00 | 64 | 1013.8 |
| 20260508182147 | 70 | 264 | 1.0 | 2.0 | 0.00 | 0.00 | 0.00 | 63 | 1013.7 |
| 20260508181653 | 70 | 241 | 0.0 | 4.0 | 0.00 | 0.00 | 0.00 | 63 | 1013.6 |
| 20260508181156 | 70 | 229 | 2.0 | 3.0 | 0.00 | 0.00 | 0.00 | 63 | 1013.5 |
| 20260508180647 | 70 | 222 | 3.0 | 4.0 | 0.00 | 0.00 | 0.00 | 63 | 1013.5 |
| 20260508180153 | 70 | 277 | 3.0 | 5.0 | 0.00 | 0.00 | 0.00 | 63 | 1013.4 |
| 20260508175647 | 70 | 263 | 4.0 | 4.0 | 0.00 | 0.00 | 0.00 | 62 | 1013.4 |
| 20260508175153 | 70 | 283 | 4.0 | 4.0 | 0.00 | 0.00 | 0.00 | 62 | 1013.4 |
| 20260508174647 | 70 | 269 | 0.0 | 3.0 | 0.00 | 0.00 | 0.00 | 62 | 1013.4 |
| 20260508174147 | 70 | 261 | 1.0 | 5.0 | 0.00 | 0.00 | 0.00 | 62 | 1013.3 |
| 20260508173647 | 70 | 254 | 5.0 | 5.0 | 0.00 | 0.00 | 0.00 | 62 | 1013.2 |
| 20260508173147 | 70 | 264 | 3.0 | 5.0 | 0.00 | 0.00 | 0.00 | 61 | 1013.2 |
| 20260508172647 | 70 | 250 | 1.0 | 6.0 | 0.00 | 0.00 | 0.00 | 61 | 1013.2 |
| 20260508172150 | 70 | 251 | 3.0 | 6.0 | 0.00 | 0.00 | 0.00 | 60 | 1013.1 |
| 20260508171650 | 71 | 246 | 5.0 | 5.0 | 0.00 | 0.00 | 0.00 | 59 | 1013.1 |
| 20260508171148 | 71 | 247 | 3.0 | 6.0 | 0.00 | 0.00 | 0.00 | 59 | 1013.0 |
| 20260508170647 | 71 | 246 | 3.0 | 6.0 | 0.00 | 0.00 | 0.00 | 58 | 1013.0 |
| 20260508170147 | 71 | 317 | 0.0 | 5.0 | 0.00 | 0.00 | 0.00 | 58 | 1013.0 |
| 20260508165656 | 71 | 254 | 4.0 | 6.0 | 0.00 | 0.00 | 0.00 | 58 | 1013.0 |
| 20260508165147 | 71 | 236 | 4.0 | 5.0 | 0.00 | 0.00 | 0.00 | 57 | 1012.9 |
| 20260508164650 | 71 | 227 | 4.0 | 5.0 | 0.00 | 0.00 | 0.00 | 53 | 1012.9 |
| 20260508164150 | 72 | 244 | 1.0 | 6.0 | 0.00 | 0.00 | 0.00 | 52 | 1012.9 |
| 20260508163647 | 72 | 250 | 2.0 | 6.0 | 0.00 | 0.00 | 0.00 | 53 | 1012.9 |
| 20260508163150 | 72 | 275 | 1.0 | 4.0 | 0.00 | 0.00 | 0.00 | 54 | 1012.9 |
| 20260508162647 | 72 | 284 | 3.0 | 5.0 | 0.00 | 0.00 | 0.00 | 55 | 1012.9 |
| 20260508162150 | 72 | 302 | 2.0 | 7.0 | 0.00 | 0.00 | 0.00 | 54 | 1012.9 |
| 20260508161650 | 72 | 221 | 4.0 | 4.0 | 0.00 | 0.00 | 0.00 | 53 | 1012.9 |
| 20260508161148 | 72 | 260 | 2.0 | 4.0 | 0.00 | 0.00 | 0.00 | 52 | 1012.9 |
| 20260508160653 | 72 | 187 | 4.0 | 5.0 | 0.00 | 0.00 | 0.00 | 53 | 1012.9 |
| 20260508160147 | 72 | 247 | 3.0 | 6.0 | 0.00 | 0.00 | 0.00 | 53 | 1012.9 |
| 20260508155647 | 72 | 221 | 3.0 | 4.0 | 0.00 | 0.00 | 0.00 | 54 | 1012.9 |
| 20260508155157 | 72 | 316 | 0.0 | 4.0 | 0.00 | 0.00 | 0.00 | 55 | 1012.9 |
| 20260508154647 | 72 | 260 | 0.0 | 5.0 | 0.00 | 0.00 | 0.00 | 57 | 1012.9 |
| 20260508154148 | 72 | 309 | 0.0 | 4.0 | 0.00 | 0.00 | 0.00 | 57 | 1012.9 |
| 20260508153647 | 72 | 330 | 1.0 | 3.0 | 0.00 | 0.00 | 0.00 | 57 | 1012.9 |
| 20260508153150 | 72 | 233 | 2.0 | 6.0 | 0.00 | 0.00 | 0.00 | 57 | 1012.9 |
| 20260508152650 | 72 | 315 | 5.0 | 7.0 | 0.00 | 0.00 | 0.00 | 60 | 1012.9 |
| 20260508152156 | 72 | 306 | 1.0 | 4.0 | 0.00 | 0.00 | 0.00 | 61 | 1012.9 |
| 20260508151647 | 72 | 304 | 0.0 | 2.0 | 0.00 | 0.00 | 0.00 | 61 | 1012.9 |
| 20260508151147 | 72 | 290 | 2.0 | 5.0 | 0.00 | 0.00 | 0.00 | 62 | 1012.8 |
| 20260508150647 | 72 | 292 | 1.0 | 5.0 | 0.00 | 0.00 | 0.00 | 61 | 1012.8 |
| 20260508150150 | 72 | 326 | 5.0 | 6.0 | 0.00 | 0.00 | 0.00 | 59 | 1012.9 |
| 20260508145648 | 73 | 327 | 6.0 | 7.0 | 0.00 | 0.00 | 0.00 | 60 | 1012.8 |
| 20260508145147 | 73 | 313 | 4.0 | 6.0 | 0.00 | 0.00 | 0.00 | 60 | 1012.8 |
| 20260508144647 | 73 | 217 | 0.0 | 6.0 | 0.00 | 0.00 | 0.00 | 61 | 1012.8 |
| 20260508144147 | 72 | 292 | 0.0 | 3.0 | 0.00 | 0.00 | 0.00 | 63 | 1012.7 |
| 20260508143653 | 72 | 59 | 1.0 | 7.0 | 0.00 | 0.00 | 0.00 | 62 | 1012.6 |
| 20260508143147 | 73 | 0 | 3.0 | 7.0 | 0.00 | 0.00 | 0.00 | 61 | 1012.7 |
| 20260508142647 | 73 | 355 | 3.0 | 6.0 | 0.00 | 0.00 | 0.00 | 60 | 1012.7 |
| 20260508142150 | 73 | 277 | 2.0 | 5.0 | 0.00 | 0.00 | 0.00 | 62 | 1012.6 |
| 20260508141653 | 73 | 335 | 3.0 | 6.0 | 0.00 | 0.00 | 0.00 | 62 | 1012.6 |
| 20260508141147 | 73 | 325 | 2.0 | 6.0 | 0.00 | 0.00 | 0.00 | 62 | 1012.7 |
| 20260508140650 | 73 | 283 | 1.0 | 8.0 | 0.00 | 0.00 | 0.00 | 62 | 1012.6 |
| 20260508140150 | 73 | 240 | 3.0 | 6.0 | 0.00 | 0.00 | 0.00 | 62 | 1012.6 |
| 20260508135650 | 73 | 257 | 1.0 | 6.0 | 0.00 | 0.00 | 0.00 | 62 | 1012.4 |
| 20260508135150 | 73 | 267 | 0.0 | 6.0 | 0.00 | 0.00 | 0.00 | 62 | 1012.5 |
| 20260508134654 | 73 | 282 | 1.0 | 5.0 | 0.00 | 0.00 | 0.00 | 62 | 1012.5 |
| 20260508134154 | 74 | 291 | 4.0 | 7.0 | 0.00 | 0.00 | 0.00 | 61 | 1012.5 |
| 20260508133653 | 74 | 300 | 5.0 | 8.0 | 0.00 | 0.00 | 0.00 | 61 | 1012.6 |
| 20260508133147 | 75 | 336 | 3.0 | 12.0 | 0.00 | 0.00 | 0.00 | 60 | 1012.5 |
| 20260508132648 | 75 | 318 | 5.0 | 8.0 | 0.00 | 0.00 | 0.00 | 58 | 1012.4 |
| 20260508132147 | 76 | 243 | 3.0 | 7.0 | 0.00 | 0.00 | 0.00 | 56 | 1012.3 |
| 20260508131647 | 76 | 314 | 6.0 | 5.0 | 0.00 | 0.00 | 0.00 | 58 | 1012.4 |
| 20260508131147 | 75 | 302 | 2.0 | 7.0 | 0.00 | 0.00 | 0.00 | 57 | 1012.3 |
| 20260508130654 | 75 | 350 | 1.0 | 6.0 | 0.00 | 0.00 | 0.00 | 58 | 1012.2 |
| 20260508130148 | 75 | 350 | 2.0 | 6.0 | 0.00 | 0.00 | 0.00 | 58 | 1012.2 |
| 20260508125647 | 75 | 313 | 2.0 | 5.0 | 0.00 | 0.00 | 0.00 | 59 | 1012.3 |
| 20260508125154 | 75 | 355 | 0.0 | 6.0 | 0.00 | 0.00 | 0.00 | 59 | 1012.3 |
| 20260508124648 | 75 | 336 | 4.0 | 7.0 | 0.00 | 0.00 | 0.00 | 58 | 1012.3 |
| 20260508124154 | 75 | 283 | 4.0 | 8.0 | 0.00 | 0.00 | 0.00 | 57 | 1012.3 |
| 20260508123648 | 75 | 308 | 7.0 | 7.0 | 0.00 | 0.00 | 0.00 | 57 | 1012.2 |
| 20260508123151 | 76 | 282 | 5.0 | 9.0 | 0.00 | 0.00 | 0.00 | 55 | 1012.3 |
| 20260508122648 | 76 | 292 | 6.0 | 7.0 | 0.00 | 0.00 | 0.00 | 55 | 1012.2 |
| 20260508122148 | 75 | 298 | 4.0 | 10.0 | 0.00 | 0.00 | 0.00 | 56 | 1012.2 |
| 20260508121648 | 75 | 0 | 5.0 | 10.0 | 0.00 | 0.00 | 0.00 | 55 | 1012.2 |
| 20260508121154 | 75 | 253 | 0.0 | 8.0 | 0.00 | 0.00 | 0.00 | 55 | 1012.1 |
| 20260508120651 | 76 | 246 | 4.0 | 8.0 | 0.00 | 0.00 | 0.00 | 53 | 1012.2 |
| 20260508120148 | 76 | 267 | 3.0 | 10.0 | 0.00 | 0.00 | 0.00 | 53 | 1012.1 |
| 20260508115657 | 76 | 300 | 8.0 | 10.0 | 0.00 | 0.00 | 0.00 | 53 | 1012.0 |
| 20260508115154 | 75 | 316 | 2.0 | 10.0 | 0.00 | 0.00 | 0.00 | 53 | 1012.0 |
| 20260508114654 | 75 | 282 | 3.0 | 9.0 | 0.00 | 0.00 | 0.00 | 54 | 1011.9 |
| 20260508114154 | 75 | 44 | 3.0 | 10.0 | 0.00 | 0.00 | 0.00 | 54 | 1012.0 |
| 20260508113648 | 75 | 302 | 4.0 | 10.0 | 0.00 | 0.00 | 0.00 | 54 | 1011.9 |
| 20260508113148 | 75 | 310 | 7.0 | 11.0 | 0.00 | 0.00 | 0.00 | 54 | 1011.9 |
| 20260508112657 | 75 | 333 | 2.0 | 11.0 | 0.00 | 0.00 | 0.00 | 55 | 1011.9 |
| 20260508112151 | 75 | 329 | 7.0 | 12.0 | 0.00 | 0.00 | 0.00 | 55 | 1011.9 |
| 20260508111648 | 75 | 315 | 8.0 | 10.0 | 0.00 | 0.00 | 0.00 | 53 | 1011.9 |
| 20260508111151 | 75 | 298 | 2.0 | 10.0 | 0.00 | 0.00 | 0.00 | 53 | 1011.9 |
| 20260508110648 | 75 | 292 | 6.0 | 9.0 | 0.00 | 0.00 | 0.00 | 52 | 1011.9 |
| 20260508110151 | 75 | 255 | 7.0 | 10.0 | 0.00 | 0.00 | 0.00 | 53 | 1011.9 |
| 20260508105651 | 75 | 333 | 4.0 | 8.0 | 0.00 | 0.00 | 0.00 | 54 | 1011.8 |
| 20260508105148 | 75 | 316 | 4.0 | 8.0 | 0.00 | 0.00 | 0.00 | 54 | 1011.9 |
| 20260508104651 | 75 | 209 | 4.0 | 6.0 | 0.00 | 0.00 | 0.00 | 56 | 1011.9 |
| 20260508104154 | 75 | 257 | 3.0 | 7.0 | 0.00 | 0.00 | 0.00 | 57 | 1011.9 |
| 20260508103654 | 75 | 169 | 3.0 | 6.0 | 0.00 | 0.00 | 0.00 | 57 | 1012.0 |
| 20260508103151 | 74 | 311 | 5.0 | 9.0 | 0.00 | 0.00 | 0.00 | 59 | 1012.1 |
| 20260508102651 | 74 | 311 | 3.0 | 8.0 | 0.00 | 0.00 | 0.00 | 59 | 1012.0 |
| 20260508102148 | 74 | 271 | 2.0 | 8.0 | 0.00 | 0.00 | 0.00 | 60 | 1012.0 |
| 20260508101651 | 73 | 338 | 4.0 | 8.0 | 0.00 | 0.00 | 0.00 | 60 | 1012.0 |